Tracking 20093 objects as of 16-Dec-2019
HD Live streaming from Space Station
objects crossing your sky now

COSMOS 2251 DEB

Track COSMOS 2251 DEB now!
10-day predictions


NORAD ID: 33928
Int'l Code: 1993-036EH
Perigee: 708.8 km
Apogee: 802.9 km
Inclination: 73.9 °
Period: 99.8 minutes
Semi major axis: 7126 km
RCS: 0.039 m2 (small)
Launch date: June 16, 1993
Source: Commonwealth of Independent States (former USSR) (CIS)
Launch site: PLESETSK MISSILE AND SPACE COMPLEX (PKMTR)

Note: This is SATELLITE DEBRIS
aabbcc
Your satellite tracking list
Your tracking list is empty




NASA's NSSDC Master Catalog

Two Line Element Set (TLE):
1 33928U 93036EH  19349.83232674 +.00000070 +00000-0 +28801-4 0  9997
2 33928 073.9249 192.8422 0066000 244.8489 114.5812 14.42957889570438
Source of the keplerian elements: AFSPC